FW7911 Weather Reports


time (UTC)temp
C
wind
direction
speed
KPH
gust
KPH
rain 1hr
cm
rain 24hr
cm
rain mn
cm
humidity
%
barometer
mb
20260506181109 10 274 12.9 24.1 0.23 0.66 0.66 92 1010.0
20260506180109 10 217 12.9 19.3 0.23 0.61 0.61 91 1009.8
20260506175109 11 161 9.7 17.7 0.20 0.61 0.58 92 1009.7
20260506174109 11 327 11.3 22.5 0.20 0.56 0.53 91 1009.5
20260506173114 11 186 6.4 11.3 0.23 0.51 0.51 91 1009.4
20260506172114 11 215 6.4 20.9 0.23 0.51 0.48 91 1009.3
20260506171114 11 194 9.7 20.9 0.23 0.46 0.43 91 1009.2
20260506170113 11 204 14.5 22.5 0.20 0.43 0.41 91 1009.2
20260506165114 11 298 14.5 22.5 0.20 0.41 0.38 90 1009.1
20260506164113 11 175 8.0 22.5 0.18 0.36 0.33 91 1009.1
20260506163113 11 242 6.4 16.1 0.15 0.30 0.28 90 1009.1
20260506162113 11 146 8.0 19.3 0.15 0.28 0.25 90 1009.0
20260506161113 11 171 9.7 20.9 0.13 0.23 0.23 90 1009.1
20260506160113 11 97 11.3 22.5 0.10 0.23 0.20 89 1009.1
20260506155113 11 203 11.3 19.3 0.08 0.20 0.18 89 1009.0
20260506153113 11 264 11.3 22.5 0.05 0.15 0.15 88 1008.8
20260506151113 11 206 14.5 27.4 0.00 0.13 0.10 86 1008.8
20260506150112 11 197 11.3 24.1 0.00 0.13 0.10 86 1008.7
20260506145113 11 271 11.3 27.4 0.03 0.13 0.10 86 1008.7
20260506143112 12 180 8.0 22.5 0.03 0.13 0.10 86 1008.6
20260506142112 12 262 9.7 20.9 0.03 0.13 0.10 86 1008.6
20260506141112 12 168 16.1 29.0 0.03 0.13 0.10 87 1008.5
20260506140112 12 211 9.7 25.7 0.05 0.13 0.10 86 1008.4
20260506135113 12 155 8.0 20.9 0.03 0.48 0.08 87 1008.4
20260506134113 12 178 8.0 17.7 0.03 0.48 0.08 88 1008.4
20260506133113 12 275 9.7 24.1 0.05 0.48 0.08 88 1008.4
20260506132112 12 284 8.0 24.1 0.05 0.48 0.08 87 1008.3
20260506131112 12 209 11.3 25.7 0.05 0.48 0.08 86 1008.3
20260506130111 12 253 11.3 24.1 0.05 0.46 0.05 86 1008.2
20260506125111 12 247 12.9 29.0 0.05 0.46 0.05 86 1008.0
20260506123111 13 227 14.5 30.6 0.05 0.43 0.05 88 1007.6
20260506122111 13 256 14.5 29.0 0.05 0.43 0.05 87 1007.5
20260506121111 13 231 11.3 24.1 0.05 0.43 0.05 88 1007.5
20260506120111 13 282 11.3 25.7 0.03 0.43 0.03 89 1007.3
20260506115111 13 238 11.3 24.1 0.03 0.43 0.03 88 1007.3
20260506114111 14 254 8.0 20.9 0.03 0.43 0.03 87 1007.3
20260506113111 14 265 8.0 19.3 0.00 0.41 0.00 86 1007.2
20260506111111 14 299 9.7 20.9 0.00 0.41 0.00 84 1007.2
20260506110111 14 262 6.4 19.3 0.00 0.41 0.00 84 1007.2
20260506104112 15 275 4.8 20.9 0.00 0.41 0.00 81 1007.0
20260506103111 15 222 8.0 19.3 0.00 0.41 0.00 79 1006.9
20260506102111 15 235 4.8 19.3 0.00 0.41 0.00 79 1006.9
20260506101111 15 258 9.7 17.7 0.00 0.41 0.00 80 1006.8
20260506100110 15 256 6.4 12.9 0.00 0.41 0.00 80 1006.7
20260506095110 15 231 9.7 20.9 0.00 0.41 0.00 80 1006.6
20260506094110 15 206 9.7 17.7 0.00 0.41 0.00 79 1006.6
20260506093110 15 204 6.4 12.9 0.00 0.41 0.00 79 1006.7
20260506092110 15 183 6.4 11.3 0.00 0.41 0.00 79 1006.6
20260506091110 15 164 11.3 22.5 0.00 0.41 0.00 78 1006.6
20260506090110 15 288 8.0 12.9 0.00 0.41 0.00 78 1006.4
20260506085110 15 236 8.0 16.1 0.00 0.41 0.00 77 1006.4
20260506084110 15 217 9.7 20.9 0.00 0.41 0.00 77 1006.2
20260506083110 15 351 6.4 19.3 0.00 0.41 0.00 78 1006.1
20260506082110 15 348 8.0 19.3 0.00 0.41 0.00 78 1006.1
20260506081110 15 276 8.0 17.7 0.00 0.41 0.00 79 1006.1
20260506080109 15 247 3.2 16.1 0.00 0.41 0.00 80 1006.4
20260506072109 14 263 8.0 17.7 0.00 0.41 0.00 79 1006.2
20260506071109 14 207 8.0 17.7 0.00 0.41 0.00 81 1006.2
20260506070109 14 192 6.4 19.3 0.00 0.41 0.00 79 1006.2
20260506062109 13 169 6.4 16.1 0.00 0.41 0.00 83 1006.4
20260506061108 13 178 6.4 9.7 0.00 0.41 0.00 85 1006.3
20260506051108 11 222 6.4 11.3 0.00 0.41 0.00 87 1006.2
20260506050108 11 232 4.8 8.0 0.00 0.41 0.00 87 1006.5
20260506045108 11 211 6.4 9.7 0.00 0.41 0.00 87 1006.7
20260506044108 11 181 8.0 16.1 0.00 0.41 0.00 88 1006.8
20260506043108 11 263 0.0 4.8 0.00 0.41 0.00 88 1006.8
20260506042108 11 273 3.2 9.7 0.00 0.41 0.00 87 1006.7
20260506041112 11 154 4.8 19.3 0.00 0.41 0.00 87 1006.7
20260506035112 11 202 9.7 16.1 0.00 0.41 0.00 88 1007.1
20260506034112 11 197 1.6 6.4 0.00 0.41 0.00 88 1007.2
20260506033112 11 275 3.2 8.0 0.00 0.41 0.00 88 1007.1
20260506032112 11 280 1.6 6.4 0.00 0.41 0.00 88 1007.2
20260506031112 10 261 1.6 6.4 0.00 0.41 0.00 89 1007.2
20260506030112 10 262 3.2 9.7 0.00 0.41 0.00 91 1007.2
20260506024112 10 258 0.0 1.6 0.00 0.41 0.00 91 1007.3
20260506023112 10 258 0.0 0.0 0.00 0.41 0.00 91 1007.5
20260506022112 10 258 0.0 3.2 0.00 0.41 0.00 90 1007.7
20260506021112 11 248 0.0 4.8 0.00 0.41 0.00 89 1007.7
20260506015112 11 265 0.0 4.8 0.00 0.41 0.00 88 1007.7
20260506014111 11 282 1.6 4.8 0.00 0.41 0.00 88 1008.0
20260506013111 11 239 0.0 0.0 0.00 0.41 0.00 90 1008.0
20260506012111 10 235 1.6 4.8 0.00 0.41 0.00 90 1008.2
20260506011111 10 261 1.6 6.4 0.00 0.41 0.00 90 1008.2
20260506010111 10 272 1.6 6.4 0.00 0.41 0.00 91 1008.0
20260506005111 10 211 3.2 4.8 0.00 0.41 0.00 92 1008.0
20260506003111 10 242 4.8 4.8 0.00 0.41 0.00 92 1008.1
20260506002111 10 225 1.6 3.2 0.00 0.41 0.00 91 1008.2
20260506001111 10 235 3.2 4.8 0.00 0.41 0.00 91 1008.5
20260506000111 11 230 1.6 4.8 0.00 0.41 0.00 90 1008.5
20260505234111 11 275 0.0 0.0 0.00 0.41 0.00 90 1008.6
20260505233110 11 275 0.0 0.0 0.00 0.41 0.00 90 1008.9
20260505231110 11 270 3.2 4.8 0.00 0.41 0.00 89 1008.9
20260505230111 11 249 1.6 4.8 0.00 0.41 0.00 90 1008.9
20260505225110 11 258 3.2 4.8 0.00 0.41 0.00 90 1008.9
20260505223110 11 230 1.6 4.8 0.00 0.41 0.00 89 1008.9
20260505222110 11 232 3.2 6.4 0.00 0.41 0.00 89 1009.0
20260505221110 11 256 1.6 3.2 0.00 0.41 0.00 89 1009.0
20260505220110 11 256 0.0 4.8 0.00 0.41 0.00 89 1009.1
20260505214109 11 219 1.6 3.2 0.00 0.41 0.41 90 1009.0
20260505213109 11 229 3.2 6.4 0.00 0.41 0.41 89 1009.0
20260505211111 12 186 6.4 9.7 0.00 0.41 0.41 89 1009.3
20260505210109 12 211 4.8 8.0 0.00 0.41 0.41 89 1009.1
20260505205109 12 171 8.0 11.3 0.00 0.41 0.41 89 1009.4
20260505204109 12 220 6.4 11.3 0.00 0.41 0.41 89 1009.3
20260505203109 12 200 8.0 9.7 0.00 0.41 0.41 89 1009.3
20260505202109 12 211 4.8 8.0 0.00 0.41 0.41 89 1009.1
20260505201109 13 235 1.6 3.2 0.00 0.41 0.41 89 1009.0
20260505200109 13 223 1.6 6.4 0.00 0.41 0.41 90 1009.1
20260505195109 12 236 1.6 4.8 0.00 0.41 0.41 89 1008.9
20260505193108 12 232 1.6 4.8 0.00 0.41 0.41 88 1008.8
20260505192108 13 258 1.6 6.4 0.00 0.41 0.41 87 1008.7
20260505191108 13 228 1.6 6.4 0.00 0.41 0.41 86 1008.4
20260505185113 14 256 3.2 8.0 0.03 0.41 0.41 86 1008.3
20260505183113 14 219 6.4 16.1 0.03 0.41 0.41 84 1008.0
20260505182113 14 228 8.0 12.9 0.03 0.41 0.41 86 1007.9